Wind_Speed
12 13 13 13 11 11 12 12 12 12 12 12 12 11 11 10 9 9 8 9 9 9 10 10 9 9 8 9 10 10 9 8 8 8 8 8 8 8 8 8 8 7 7
12 13 13 12 12 12 12 12 13 13 13 13 13 12 11 11 9 9 9 9 9 9 10 10 9 9 9 9 10 10 9 9 9 8 8 9 9 9 9 9 8 8 8
12 13 13 13 13 13 12 12 13 13 14 13 13 12 12 11 10 10 10 11 10 10 9 10 10 10 10 10 11 11 11 10 10 9 9 9 10 10 10 10 9 9 9
13 13 13 13 14 13 13 13 13 14 13 13 13 13 12 12 11 11 11 11 12 12 10 11 11 10 11 11 12 12 12 11 11 10 10 11 11 11 11 10 10 10 10
13 13 13 14 14 14 14 13 13 13 13 13 13 13 13 12 12 11 11 11 12 12 12 12 12 12 12 13 13 13 13 13 13 13 12 12 12 12 12 12 12 12 12
14 14 14 14 14 14 14 14 13 13 13 13 13 13 13 13 12 12 13 13 13 13 13 12 13 13 14 14 14 14 14 14 15 15 15 14 14 14 14 13 14 14 15
15 14 14 14 14 14 14 13 13 13 13 13 13 14 14 14 13 14 14 14 14 14 14 14 14 15 15 15 15 16 16 16 17 17 17 17 16 16 16 17 17 17 17
16 16 15 15 14 14 14 13 13 13 13 14 14 14 15 15 15 15 14 14 14 14 15 15 16 17 17 17 17 17 17 18 18 18 19 19 19 19 19 19 19 19 19
17 17 16 16 16 15 15 15 13 13 14 14 15 15 16 16 16 16 15 15 15 15 15 16 17 18 18 18 18 19 19 19 19 20 20 21 21 21 21 21 21 21 21
17 17 18 18 17 17 17 15 15 15 15 15 15 17 17 16 16 16 16 17 17 17 17 17 18 18 19 19 20 20 21 21 21 22 22 22 22 23 23 23 24 24 24
18 18 19 18 18 18 17 15 15 15 16 16 16 17 18 18 18 18 18 18 19 19 19 19 19 20 21 21 22 23 23 23 23 24 24 25 25 25 25 25 25 25 26
19 20 20 19 18 18 18 18 17 18 18 17 17 17 17 18 18 19 19 20 20 21 21 21 21 22 22 23 24 24 25 25 25 26 26 26 26 26 26 26 26 27 27
20 20 20 21 20 19 18 18 18 19 18 17 18 19 19 19 19 20 21 21 22 22 22 23 23 24 24 25 26 26 26 26 27 27 27 27 27 28 28 28 28 29 29
22 22 22 22 22 20 20 19 20 20 19 19 20 21 21 22 22 22 22 23 23 24 24 24 25 26 26 27 27 27 27 28 28 28 28 28 28 29 29 30 30 30 30
24 24 24 23 22 22 21 21 21 21 21 21 22 22 23 23 24 24 24 25 25 26 26 26 27 28 27 28 28 28 28 28 29 29 29 29 30 30 30 30 30 31 31
25 25 24 23 23 23 23 22 23 23 23 23 24 24 25 25 26 26 26 27 28 27 28 28 28 29 29 29 29 28 29 29 29 29 30 30 30 30 31 31 31 31 31
26 25 25 25 25 25 24 25 25 25 25 25 26 26 26 27 27 27 28 28 28 29 30 30 30 30 30 29 29 29 29 29 30 30 30 30 30 31 31 32 32 32 32
26 26 26 26 26 25 25 26 27 27 26 26 26 27 28 28 29 28 29 29 30 30 31 30 31 30 29 29 29 29 29 29 30 30 30 31 31 31 31 32 32 33 33
27 27 27 27 27 27 27 28 28 28 28 27 28 28 29 30 30 30 29 30 30 30 30 30 30 29 29 29 30 31 30 30 30 31 31 31 32 32 32 33 33 34 34
28 28 27 27 28 28 28 28 28 28 28 29 29 29 30 30 31 30 31 31 30 30 30 30 30 30 30 30 31 31 31 32 32 32 33 33 33 33 33 34 34 34 34
28 28 29 28 28 28 28 28 28 29 29 29 29 30 30 31 31 32 32 32 31 31 31 31 31 31 31 32 32 32 32 32 33 32 33 34 34 35 34 34 34 33 32
28 28 29 28 28 28 28 28 28 29 29 29 29 30 30 31 32 33 33 33 32 32 32 32 32 32 32 32 32 32 32 33 34 33 34 35 35 35 34 34 33 32 32
28 28 28 28 28 28 29 29 29 29 29 29 30 30 31 31 32 32 32 32 32 32 32 32 32 32 32 32 33 32 33 34 35 35 35 36 35 35 34 34 33 32 32
29 29 28 28 27 28 29 29 29 29 29 29 30 30 31 31 32 32 32 32 32 32 32 32 32 32 32 33 33 33 34 34 35 35 35 35 34 34 33 32 31 31 31
29 29 28 27 27 28 28 28 29 29 30 30 31 31 31 31 31 31 31 31 31 31 31 31 32 32 32 33 34 34 34 34 35 35 34 34 33 32 31 30 30 29 29
28 28 28 28 28 28 29 30 29 30 31 31 31 31 31 31 31 30 30 30 30 31 31 30 30 31 32 33 35 35 35 35 35 35 34 33 31 30 30 29 28 28 28
Wind_Direction
353 355 355 354 355 355 353 351 351 349 346 346 343 340 337 334 332 335 336 336 342 344 343 342 339 335 333 333 333 331 329 324 323 322 322 320 319 312 312 313 311 305 296
350 350 352 352 350 349 348 345 345 344 340 338 337 336 332 332 328 331 335 334 333 337 338 338 338 336 333 333 333 328 326 324 322 323 320 319 318 313 314 314 310 305 298
345 343 344 345 345 344 341 340 340 340 338 335 335 335 334 331 327 324 328 332 331 329 332 335 335 334 333 332 331 330 327 324 322 319 316 314 314 313 309 310 303 298 297
338 336 338 337 337 337 336 337 337 340 339 337 334 334 336 334 330 325 326 328 327 328 323 323 324 325 328 327 325 326 324 321 320 317 313 311 311 310 306 301 299 296 293
333 335 337 335 333 334 333 334 336 335 334 334 332 331 331 330 326 325 324 325 321 318 316 315 316 316 319 321 320 319 318 316 314 312 310 307 305 303 303 300 297 295 294
330 331 331 332 331 332 334 334 335 331 327 328 330 330 328 327 325 323 321 320 317 314 311 310 312 312 313 314 315 313 311 310 310 308 307 304 300 298 296 297 297 295 294
325 325 325 327 328 327 328 330 329 327 326 325 325 326 325 324 321 318 315 315 314 313 312 311 310 310 310 310 310 310 309 306 305 304 303 301 299 297 295 293 292 292 293
320 323 324 323 322 322 323 326 326 324 324 323 323 322 322 321 319 316 313 312 311 311 311 311 311 310 309 308 307 307 307 305 304 302 301 300 298 295 294 293 292 291 290
319 321 320 319 318 319 318 319 321 320 320 320 319 320 319 318 316 314 313 311 310 310 310 309 309 311 311 309 307 306 304 303 302 301 301 300 298 296 293 291 291 290 288
315 317 317 316 315 315 314 316 317 316 315 315 315 318 319 316 314 313 312 311 310 307 307 308 308 307 307 307 306 305 303 301 300 299 299 298 297 296 294 290 289 288 287
309 312 312 314 314 313 312 309 312 313 313 311 313 315 315 314 314 314 313 312 311 308 306 305 306 307 306 304 304 304 302 300 299 298 297 295 295 294 293 292 290 287 286
306 308 309 311 310 310 311 311 310 311 312 309 310 311 312 312 313 313 313 312 312 310 307 306 305 305 305 305 305 305 303 301 299 298 297 295 294 292 291 290 290 288 286
303 305 305 305 306 306 306 306 307 308 310 308 309 309 308 310 312 312 312 311 310 310 307 306 306 304 304 304 304 303 302 301 299 297 296 295 293 291 290 290 289 287 285
299 301 302 303 301 300 300 302 303 305 306 307 308 309 309 310 310 310 311 310 309 309 307 305 304 304 303 303 303 301 301 300 299 297 296 295 293 292 291 289 288 287 285
297 298 298 299 298 297 297 298 298 300 302 304 306 307 307 307 308 308 309 309 308 308 309 306 305 306 305 304 302 301 299 299 298 297 296 295 294 293 291 290 289 287 286
294 295 296 298 297 296 296 295 296 298 299 301 302 304 305 305 305 307 307 307 307 306 308 309 307 306 305 304 303 301 300 300 299 298 296 296 294 293 292 290 289 287 286
293 293 294 294 295 296 294 294 295 297 297 297 299 301 301 302 303 305 305 305 305 306 307 308 306 304 304 304 303 302 301 301 300 299 297 296 295 294 294 292 290 288 286
292 292 294 294 294 294 294 294 294 295 296 297 298 299 300 300 302 302 304 305 304 305 306 307 307 305 304 304 303 302 301 300 301 300 299 298 296 294 293 291 290 289 287
292 293 294 294 294 294 294 294 294 294 294 295 296 297 298 300 302 302 303 303 304 304 305 306 306 305 305 304 303 302 300 301 301 301 300 299 297 296 294 292 290 289 287
293 292 293 293 293 294 293 293 293 293 293 294 295 296 297 299 300 300 301 303 303 303 304 305 306 305 304 303 302 302 301 302 302 301 300 300 299 298 297 294 292 290 288
290 291 292 293 294 294 293 292 292 293 293 293 294 295 297 300 301 301 301 300 301 301 303 304 305 304 303 303 303 302 302 302 302 302 301 301 300 299 298 296 294 292 290
289 291 292 291 292 293 293 293 293 293 293 294 295 297 298 300 301 301 301 301 300 301 302 303 303 304 303 302 303 303 303 304 303 303 302 301 300 300 298 297 295 292 290
288 290 291 292 292 292 292 293 293 292 293 294 296 297 298 299 300 302 302 301 302 303 303 303 302 303 303 303 303 304 304 304 304 304 304 302 301 300 299 299 297 295 292
286 288 289 291 291 292 293 292 293 294 295 296 297 298 299 300 300 301 302 303 303 304 305 304 303 303 303 303 304 304 304 305 305 305 304 303 301 301 300 299 297 296 295
286 288 288 288 291 292 292 293 295 295 296 296 297 298 300 301 301 301 301 302 303 304 306 306 305 304 303 304 304 303 303 304 305 306 305 304 302 302 302 300 299 297 295
285 285 288 289 290 291 292 292 293 294 295 295 296 298 299 301 300 301 301 303 304 305 306 307 306 307 306 306 305 304 304 305 306 305 304 305 303 302 302 300 299 298 298
Height
5904 5903 5901 5898 5896 5896 5895 5893 5892 5891 5889 5888 5886 5885 5884 5883 5882 5880 5879 5878 5877 5876 5875 5874 5873 5872 5871 5870 5869 5868 5867 5865 5865 5864 5863 5862 5861 5860 5859 5859 5859 5859 5859
5905 5903 5901 5899 5898 5896 5895 5894 5892 5890 5889 5887 5886 5884 5883 5882 5881 5879 5878 5877 5876 5875 5874 5873 5872 5871 5870 5869 5868 5867 5866 5864 5863 5862 5861 5860 5860 5859 5857 5857 5857 5857 5857
5905 5903 5901 5899 5898 5896 5894 5893 5892 5890 5888 5886 5885 5883 5882 5881 5880 5878 5877 5876 5875 5874 5873 5872 5871 5870 5869 5867 5866 5865 5864 5863 5861 5860 5859 5858 5858 5857 5856 5856 5855 5855 5855
5904 5902 5900 5899 5897 5895 5894 5892 5890 5889 5887 5886 5884 5883 5881 5880 5878 5877 5876 5875 5874 5873 5872 5871 5870 5869 5867 5866 5865 5863 5862 5861 5860 5859 5858 5857 5856 5855 5855 5854 5853 5852 5852
5904 5902 5900 5898 5896 5894 5893 5891 5889 5888 5886 5885 5883 5881 5880 5878 5877 5876 5874 5873 5872 5871 5870 5869 5868 5867 5866 5864 5863 5862 5860 5859 5858 5857 5856 5854 5853 5852 5852 5851 5851 5849 5849
5903 5901 5899 5897 5895 5893 5892 5890 5888 5887 5885 5884 5882 5880 5878 5877 5875 5874 5873 5871 5870 5869 5868 5867 5866 5865 5863 5862 5861 5859 5858 5857 5855 5854 5853 5852 5851 5850 5849 5848 5847 5846 5845
5901 5900 5898 5896 5894 5892 5890 5889 5887 5885 5883 5882 5880 5879 5877 5875 5874 5872 5871 5869 5868 5867 5866 5864 5863 5862 5861 5859 5858 5856 5855 5854 5852 5851 5850 5848 5847 5846 5845 5844 5844 5843 5842
5900 5898 5896 5894 5892 5890 5888 5886 5885 5883 5882 5880 5878 5876 5875 5873 5872 5870 5868 5867 5866 5864 5863 5862 5860 5859 5857 5856 5854 5853 5852 5850 5849 5847 5846 5844 5843 5842 5841 5840 5839 5838 5838
5898 5895 5893 5892 5890 5888 5886 5883 5882 5881 5879 5878 5876 5874 5872 5871 5869 5867 5866 5864 5863 5861 5860 5858 5857 5855 5854 5852 5851 5849 5847 5846 5844 5843 5841 5840 5838 5837 5836 5835 5834 5833 5832
5895 5893 5891 5889 5888 5886 5883 5881 5879 5878 5876 5874 5873 5871 5869 5868 5866 5865 5863 5861 5860 5858 5856 5854 5853 5851 5849 5848 5846 5844 5842 5841 5839 5837 5836 5834 5832 5831 5829 5829 5828 5827 5826
5892 5890 5888 5886 5885 5883 5881 5878 5877 5875 5873 5871 5870 5868 5866 5865 5863 5861 5860 5858 5856 5854 5852 5850 5849 5847 5845 5843 5841 5839 5837 5835 5833 5831 5830 5828 5826 5825 5823 5822 5821 5820 5819
5889 5887 5885 5883 5881 5879 5877 5874 5873 5872 5870 5868 5867 5865 5863 5861 5859 5858 5856 5854 5852 5850 5848 5846 5844 5842 5840 5837 5835 5833 5831 5829 5827 5825 5823 5821 5819 5818 5816 5815 5814 5812 5811
5886 5884 5882 5879 5877 5876 5874 5872 5870 5868 5866 5864 5863 5861 5859 5857 5855 5853 5851 5849 5847 5845 5843 5841 5838 5836 5834 5832 5829 5827 5825 5822 5820 5818 5816 5814 5812 5810 5809 5807 5806 5805 5803
5882 5880 5878 5875 5874 5872 5870 5868 5866 5864 5863 5861 5859 5857 5855 5853 5851 5849 5847 5844 5842 5840 5838 5835 5833 5830 5828 5825 5823 5820 5817 5815 5813 5810 5808 5806 5804 5803 5801 5799 5797 5796 5795
5877 5875 5873 5871 5869 5867 5866 5864 5862 5860 5858 5857 5854 5853 5851 5848 5846 5844 5841 5839 5837 5834 5832 5829 5826 5823 5821 5818 5816 5813 5810 5808 5805 5803 5801 5798 5796 5794 5792 5791 5789 5787 5786
5871 5870 5868 5866 5864 5862 5861 5859 5857 5855 5853 5851 5849 5847 5845 5843 5841 5838 5836 5833 5831 5828 5825 5823 5820 5817 5814 5811 5808 5805 5803 5800 5797 5795 5792 5790 5788 5786 5784 5782 5780 5778 5777
5866 5864 5862 5860 5859 5857 5855 5854 5852 5850 5848 5846 5844 5842 5840 5837 5835 5832 5830 5827 5824 5821 5818 5816 5813 5810 5806 5803 5801 5797 5795 5792 5790 5787 5784 5781 5779 5777 5775 5772 5771 5769 5767
5860 5858 5856 5854 5853 5851 5849 5848 5846 5844 5842 5840 5838 5836 5833 5830 5828 5826 5823 5820 5818 5815 5811 5808 5805 5802 5799 5796 5793 5790 5787 5785 5782 5779 5776 5773 5771 5768 5766 5763 5761 5759 5756
5853 5852 5850 5848 5846 5844 5843 5841 5839 5837 5835 5833 5831 5828 5826 5823 5821 5818 5816 5813 5810 5807 5804 5801 5797 5795 5792 5789 5786 5783 5780 5777 5773 5770 5767 5764 5761 5759 5756 5754 5751 5748 5746
5846 5844 5843 5841 5839 5837 5836 5834 5832 5830 5828 5826 5824 5821 5819 5816 5814 5811 5808 5805 5802 5800 5796 5793 5790 5787 5784 5781 5778 5774 5771 5768 5765 5762 5758 5755 5752 5749 5745 5743 5740 5738 5735
5839 5838 5836 5834 5832 5830 5828 5827 5825 5823 5821 5818 5816 5814 5811 5808 5806 5803 5800 5797 5795 5792 5789 5785 5782 5779 5776 5773 5770 5766 5763 5759 5756 5753 5749 5745 5742 5738 5735 5733 5730 5727 5725
5832 5831 5829 5827 5825 5823 5821 5819 5818 5816 5813 5811 5808 5806 5803 5801 5798 5795 5792 5789 5787 5783 5780 5777 5774 5771 5768 5764 5761 5758 5754 5751 5747 5743 5740 5736 5732 5728 5725 5723 5720 5717 5715
5825 5823 5822 5819 5817 5815 5813 5812 5810 5807 5805 5803 5801 5798 5795 5793 5790 5787 5784 5781 5778 5775 5772 5769 5766 5762 5759 5756 5752 5749 5746 5742 5738 5734 5730 5726 5723 5719 5716 5713 5710 5707 5705
5818 5816 5814 5812 5810 5808 5806 5804 5802 5799 5797 5795 5792 5790 5787 5784 5782 5779 5776 5773 5770 5766 5763 5760 5757 5754 5751 5747 5744 5740 5737 5733 5729 5725 5721 5717 5713 5709 5706 5703 5701 5698 5695
5810 5808 5807 5805 5803 5801 5798 5796 5794 5792 5789 5787 5784 5782 5779 5776 5773 5770 5768 5765 5762 5758 5755 5752 5748 5745 5742 5739 5735 5732 5728 5725 5720 5716 5711 5707 5704 5700 5697 5695 5692 5689 5687
5802 5801 5799 5797 5795 5793 5791 5789 5786 5784 5781 5778 5776 5773 5771 5768 5765 5762 5760 5757 5754 5750 5747 5744 5740 5737 5734 5730 5727 5723 5719 5715 5711 5707 5703 5699 5695 5692 5689 5686 5683 5681 5678